Location: LDNL
(36.4545°S, 141.6685°E)
Time: 18:42:49
(UTC+11:00)

STRAND 1 - Visible Passes

Search period start: 04 March 2024 00:00
Search period end: 14 March 2024 00:00
Orbit: 766 x 778 km, 98.4° (Epoch: 03 March)

Date Brightness Start Highest point End Pass type
(mag) Time Alt. Az. Time Alt. Az. Time Alt. Az.
05 Mar ? 06:42:44 10° ESE 06:44:59 13° E 06:47:14 10° ENE visible
06 Mar ? 20:39:27 10° WNW 20:41:56 14° W 20:44:27 10° WSW visible
08 Mar ? 06:38:13 10° ESE 06:39:43 11° E 06:41:11 10° ENE visible
09 Mar ? 20:33:42 10° NW 20:36:39 15° W 20:39:38 10° WSW visible
12 Mar ? 20:28:01 10° NW 20:31:21 17° W 20:34:44 10° SW visible
13 Mar ? 07:00:27 10° SE 07:04:17 20° E 07:08:04 10° NE visible
